Location: Elche
(38.2500°N, 0.7000°W)
Time: 01:55:01
(UTC+02:00)

N. Korean satellite - Visible Passes

Search period start: 21 October 2019 00:00
Search period end: 30 October 2019 23:00
Orbit: 455 x 508 km, 97.2° (Epoch: 20 October)

Date Brightness Start Highest point End Pass type
(mag) Time Alt. Az. Time Alt. Az. Time Alt. Az.
21 Oct 10.0 20:07:42 10° SW 20:09:48 15° W 20:11:57 10° NW visible
22 Oct 8.2 07:33:56 10° NNE 07:37:23 40° E 07:40:52 10° S visible
22 Oct 8.6 19:41:15 10° SSW 19:44:22 33° W 19:47:32 10° NNW visible
23 Oct 9.7 07:09:18 10° NE 07:11:59 19° E 07:14:42 10° SE visible
25 Oct 6.9 07:51:12 10° NNE 07:54:52 73° E 07:58:33 10° S visible
25 Oct 9.7 19:59:20 10° SW 20:01:53 19° W 20:04:28 10° NW visible
26 Oct 8.7 07:26:11 10° NNE 07:29:31 32° E 07:32:52 10° SSE visible
26 Oct 8.0 19:33:11 10° S 19:36:28 43° W 19:39:48 10° NNW visible
27 Oct 10.0 06:01:47 10° NE 06:04:05 16° E 06:06:24 10° SE visible
28 Oct 10.3 19:18:09 10° WSW 19:19:25 12° W 19:20:42 10° WNW visible
29 Oct 7.4 06:43:20 10° NNE 06:46:59 57° E 06:50:38 10° S visible
29 Oct 9.2 18:51:03 10° SSW 18:53:56 25° W 18:56:51 10° NW visible
30 Oct 9.2 06:18:27 10° NE 06:21:36 26° E 06:24:45 10° SSE visible
